SCP
0 0 0 0 0 0 0 0 0 0 0 0 0 0 0 0 0 0 0 0 0 0 0 0 0 0 0 0 0 0 0 0 0 0 0 0 0 0 0 0 0 0 0
0 0 0 0 0 0 0 0 0 0 0 0 0 0 0 0 0 0 0 0 0 0 0 0 0 0 0 0 0 0 0 0 0 0 0 0 0 0 0 0 0 0 0
0 0 0 0 0 0 0 0 0 0 0 0 0 0 0 0 0 0 0 0 0 0 0 0 0 0 0 0 0 0 0 0 0 0 0 0 0 0 0 0 0 0 0
0 0 0 0 0 0 0 0 0 0 0 0 0 0 0 0 0 0 0 0 0 0 0 0 0 0 0 0 0 0 0 0 0 0 0 0 0 0 0 0 0 0 0
0 0 0 0 0 0 0 0 0 0 0 0 0 0 0 0 0 0 0 0 0 0 0 0 0 0 0 0 0 0 0 0 0 0 0 0 0 0 0 0 0 0 0
0 0 0 0 0 0 0 0 0 0 0 0 0 0 0 0 0 0 0 0 0 0 0 0 0 0 0 0 0 0 0 0 0 0 0 0 0 0 0 0 0 0 0
0 0 0 0 0 0 0 0 0 0 0 0 0 0 0 0 0 0 0 0 0 0 0 0 0 0 0 0 0 0 0 0 0 0 0 0 0 0 0 0 0 0 0
0 0 0 0 0 0 0 0 0 0 0 0 0 0 0 0 0 0 0 0 0 0 0 0 0 0 0 0 0 0 0 0 0 0 0 0 0 0 0 0 0 0 0
0 0 0 0 0 0 0 0 0 0 0 0 0 0 0 0 0 0 0 0 0 0 0 0 0 0 0 0 0 0 0 0 0 0 0 0 0 0 0 0 0 0 0
0 0 0 0 0 0 0 0 0 0 0 0 0 0 0 0 0 0 0 0 0 0 0 0 0 0 0 0 0 0 0 0 0 0 0 0 0 0 0 0 0 0 0
0 0 0 0 0 0 0 0 0 0 0 0 0 0 0 0 0 0 0 0 0 0 0 0 0 0 0 0 0 0 0 0 0 0 0 0 0 0 0 0 0 0 0
0 0 0 0 0 0 0 0 -0 -0 -0 0 0 0 0 0 0 0 0 0 0 0 0 0 0 0 0 0 0 0 0 0 0 0 0 0 0 0 0 0 0 0 0
0 0 0 0 0 0 0 -0 -0 -0 0 0 0 0 0 0 0 0 0 0 0 0 0 0 0 0 0 0 0 0 0 0 0 0 0 0 0 0 0 0 0 0 0
-0 0 0 0 0 0 -0 -0 -0 -0 0 0 0 0 0 0 0 0 0 0 0 0 0 0 0 0 0 0 0 0 0 0 0 0 0 0 0 0 0 0 0 0 0
0 0 0 0 0 0 -0 0 0 0 0 0 0 0 0 0 0 0 0 0 0 0 0 0 0 0 0 0 0 0 0 0 0 0 0 0 0 0 0 0 0 0 0
0 0 0 0 0 -0 -0 0 0 0 0 0 0 0 0 0 0 0 0 0 0 0 0 0 0 0 0 0 0 0 0 0 0 0 0 0 0 0 0 0 0 0 0
0 0 0 0 -0 -0 -0 -0 -0 0 0 0 0 0 0 0 0 0 0 0 0 0 0 0 0 0 0 0 0 0 0 0 0 0 0 0 0 0 0 0 0 0 0
0 0 -0 -0 0 0 0 0 0 0 0 0 0 0 0 0 0 0 0 0 0 0 0 0 0 0 0 0 0 0 0 0 0 0 0 0 0 0 0 0 0 0 0
0 0 0 -0 0 0 0 0 0 0 0 0 0 0 0 0 0 0 0 0 0 0 0 0 0 0 0 0 0 0 0 0 0 0 0 0 0 0 0 0 0 0 0
0 0 0 0 0 0 0 0 0 0 0 0 0 0 0 0 0 0 0 0 0 0 0 0 0 0 0 0 0 0 0 0 0 0 0 0 0 0 0 0 0 0 0
0 0 0 0 0 0 0 0 0 0 0 0 0 0 0 0 0 0 0 0 0 0 0 0 0 0 0 0 0 0 0 0 0 0 0 0 0 0 0 0 0 0 0
0 0 0 0 0 0 0 0 0 0 0 0 0 0 0 0 0 0 0 0 0 0 0 0 0 0 0 0 0 0 0 0 0 0 0 0 0 0 0 0 0 0 0
0 0 0 0 0 0 0 0 0 0 0 0 0 0 0 0 0 0 0 0 0 0 0 0 0 0 0 0 0 0 0 0 0 0 0 0 0 0 0 0 0 0 0
0 0 0 0 0 0 0 0 0 0 0 0 0 0 0 0 0 0 0 0 0 0 0 0 0 0 0 0 0 0 0 0 0 0 0 0 0 0 0 0 0 0 0
0 0 0 0 0 0 0 0 0 0 0 0 0 0 0 0 0 0 0 0 0 0 0 0 0 0 0 0 0 0 0 0 0 0 0 0 0 0 0 0 0 0 0
0 0 0 0 0 0 0 0 0 0 0 0 0 0 0 0 0 0 0 0 0 0 0 0 0 0 0 0 0 0 0 0 0 0 0 0 0 0 0 0 0 0 0
Wind_Speed_500mb
54 50 48 52 49 64 67 73 79 81 83 83 88 76 79 74 72 64 60 57 59 56 46 55 54 54 58 48 49 52 45 43 41 44 39 31 31 32 30 29 24 22 21
62 54 52 57 62 58 70 74 79 83 85 83 82 86 87 82 75 68 65 61 62 59 58 52 53 53 54 67 57 60 55 51 50 50 44 32 28 30 27 28 28 26 24
65 57 51 56 67 65 63 72 77 80 84 83 81 83 84 84 81 77 75 70 64 63 62 58 63 61 62 67 72 68 67 52 60 56 44 24 23 40 33 33 33 30 28
42 43 56 43 64 67 57 60 67 75 81 81 82 82 86 87 87 85 80 73 71 71 69 60 71 66 70 71 68 75 70 63 64 63 70 46 30 33 30 43 40 37 34
42 36 38 42 47 54 53 56 68 74 78 80 79 73 71 74 78 79 77 77 74 71 68 68 71 71 74 69 71 74 73 73 78 68 76 72 45 37 33 41 52 48 42
30 35 35 35 41 47 48 49 57 64 69 71 70 68 64 63 71 74 73 74 74 74 73 72 75 76 74 73 70 76 77 74 81 75 80 83 73 59 47 36 49 50 44
28 28 29 33 38 41 40 42 48 57 64 65 66 65 61 60 64 64 66 70 72 75 75 73 71 74 74 71 68 74 79 78 85 80 77 81 70 52 44 38 39 51 50
25 25 27 28 28 30 33 36 40 45 53 59 62 62 62 59 61 59 57 57 58 58 63 69 71 65 73 76 67 71 67 73 82 81 81 85 75 57 46 51 44 43 49
25 20 19 18 23 28 28 28 29 35 42 47 50 53 57 58 57 55 55 55 54 52 48 53 57 63 68 69 67 74 70 74 82 78 81 78 79 72 64 60 59 51 50
21 18 20 21 20 20 19 17 18 19 23 25 28 36 40 45 49 52 56 57 53 51 50 53 57 59 62 63 71 68 69 72 76 74 76 80 76 68 61 59 59 57 58
18 17 18 18 20 17 15 11 8 3 5 11 17 22 27 32 39 44 50 53 51 49 49 52 50 50 55 62 67 63 63 66 69 73 77 77 68 58 46 53 58 61 59
12 17 19 24 21 20 18 11 8 7 8 13 20 26 31 33 35 38 42 43 44 44 46 47 50 52 53 56 59 61 67 69 67 69 74 72 65 57 54 41 58 60 54
7 13 23 23 21 17 10 6 1 10 17 23 29 35 37 38 43 42 43 44 42 44 47 50 52 52 52 55 57 58 58 59 61 62 66 65 60 54 42 49 58 59 51
9 12 19 13 18 16 11 15 13 22 28 34 39 43 44 47 47 46 46 46 45 46 48 51 51 52 52 57 57 58 57 58 58 55 55 50 41 40 41 57 59 52 43
20 8 22 24 25 25 26 30 35 42 41 43 51 54 51 51 53 50 49 48 49 49 49 51 50 52 52 54 56 57 55 53 52 54 49 46 38 42 54 59 58 54 40
17 26 28 24 23 27 25 27 33 40 49 56 57 58 57 56 56 53 51 51 52 51 50 51 47 51 52 53 53 52 52 51 52 56 48 46 48 55 55 56 51 46 49
14 11 12 13 17 22 28 35 41 44 52 55 55 58 59 60 57 56 55 55 53 50 49 50 51 50 50 50 52 53 54 53 58 55 48 55 60 64 62 56 56 48 48
31 31 32 31 31 35 40 47 49 46 46 47 50 51 55 57 57 57 56 56 54 52 49 49 48 50 50 51 52 54 52 55 61 51 59 56 61 58 65 55 51 53 34
34 34 34 38 39 39 39 41 39 40 41 41 42 45 48 52 53 56 56 56 54 53 51 48 47 51 50 53 58 58 59 63 60 64 59 70 68 71 65 54 56 33 28
33 35 34 34 35 32 33 33 33 35 36 35 34 36 40 44 47 49 50 51 53 50 49 49 48 49 48 56 61 62 66 68 67 67 66 62 61 69 53 60 37 33 35
37 36 37 35 33 36 39 39 35 31 32 31 29 28 30 33 35 38 41 45 49 52 53 50 47 47 48 53 63 66 67 66 74 73 70 69 70 63 62 45 33 31 36
41 36 38 38 39 43 44 38 35 36 32 30 26 22 23 26 31 35 38 43 48 50 51 51 49 48 47 47 61 62 64 67 75 77 68 68 62 67 62 52 35 39 45
36 38 46 48 47 49 48 49 43 40 40 37 31 26 25 24 25 31 34 40 44 46 48 49 49 48 42 47 60 63 67 68 71 64 64 66 67 68 64 49 45 50 49
39 41 45 47 46 46 47 48 49 49 47 42 35 29 24 23 25 27 30 35 41 41 41 43 43 41 45 43 51 66 64 60 54 58 53 60 60 71 61 58 61 59 60
36 37 36 35 34 35 37 40 42 42 42 41 38 34 29 26 25 28 28 28 33 35 34 31 32 36 41 29 30 42 59 75 61 53 52 64 67 71 76 77 74 67 68
42 43 45 48 46 43 40 37 36 36 35 35 34 32 28 25 28 25 29 31 28 32 34 34 34 31 28 29 24 26 41 72 65 60 60 66 71 73 67 77 80 75 76
Wind_Direction_500mb
257 253 250 240 238 225 224 225 226 225 225 226 223 217 222 221 226 222 224 235 233 235 233 237 243 239 233 219 227 219 216 210 208 196 179 177 191 201 205 214 213 210 205
259 255 252 242 233 231 224 225 228 230 232 233 232 226 227 230 230 230 230 236 237 236 237 236 245 231 245 220 244 221 207 212 211 203 189 186 198 205 207 210 211 212 208
264 257 246 243 232 228 228 228 230 232 234 234 235 235 232 232 233 229 228 237 238 239 239 241 236 244 233 239 236 236 222 236 220 214 207 188 205 200 205 211 214 212 210
257 257 241 245 228 223 227 232 232 231 234 237 238 240 239 236 235 235 235 236 241 239 235 243 236 234 246 247 236 240 228 239 229 215 215 218 210 183 194 211 213 212 211
258 248 234 237 219 216 224 229 230 234 237 242 243 243 241 241 241 240 240 242 242 240 241 239 234 234 240 243 246 230 234 236 231 231 216 218 212 211 205 205 208 209 207
211 198 199 205 211 218 224 229 233 237 240 244 247 248 248 244 240 240 238 237 238 240 238 238 241 241 238 240 244 237 233 247 233 231 229 226 224 219 208 212 209 212 210
185 197 209 214 219 225 231 235 232 232 237 242 248 252 249 248 248 246 245 244 241 240 239 238 239 243 241 238 242 241 245 239 240 237 236 230 228 223 227 221 202 201 207
208 211 210 213 218 228 232 234 234 232 234 238 246 253 255 254 252 249 246 246 247 250 247 240 239 245 243 239 241 247 245 242 241 239 238 234 230 221 226 236 227 204 206
212 211 208 221 240 238 235 232 232 232 238 243 246 250 253 256 255 252 249 247 246 245 239 239 243 243 241 240 242 243 241 248 242 240 241 233 233 222 225 241 245 235 214
210 222 236 246 228 208 205 210 223 230 242 247 253 255 256 254 252 249 247 246 247 242 236 240 240 239 239 240 241 245 246 243 246 241 237 234 232 226 230 239 242 243 238
221 247 253 219 187 167 146 145 159 176 291 288 273 272 264 255 251 250 250 247 244 238 241 239 242 239 240 241 240 244 246 246 243 239 235 232 229 233 231 238 239 235 225
245 245 213 181 170 161 149 115 75 29 325 300 297 295 288 280 267 259 255 255 250 245 242 239 241 244 243 245 246 246 247 244 240 236 232 229 227 228 234 231 236 224 214
286 219 185 181 183 179 166 135 332 303 282 274 272 271 273 278 278 266 258 255 250 245 243 245 245 245 249 250 251 249 245 244 242 239 237 233 230 227 216 226 223 217 213
309 237 204 224 225 225 254 260 276 295 285 276 273 270 271 270 270 264 258 252 248 245 245 241 245 247 250 248 248 246 244 242 239 232 229 230 217 215 218 219 208 200 190
299 265 251 280 271 279 294 298 296 286 284 285 282 275 270 271 270 264 258 251 247 244 240 240 242 247 249 248 246 243 238 234 230 225 216 209 214 211 214 200 191 189 202
305 293 292 293 288 289 296 290 291 295 289 286 284 280 274 272 270 267 261 254 250 246 243 242 243 244 247 247 239 232 233 229 222 208 208 208 206 205 197 189 196 215 227
8 347 341 329 313 301 296 298 301 294 287 287 288 283 276 271 268 265 260 253 251 248 247 247 244 246 245 242 237 226 227 224 210 207 222 202 206 198 196 200 213 223 241
350 340 330 322 316 313 309 306 303 299 292 291 289 285 280 273 267 262 259 254 248 246 245 246 246 247 245 240 230 228 219 213 208 219 205 214 204 213 204 207 223 238 222
357 353 344 331 318 310 306 303 303 302 299 299 294 287 282 278 271 266 262 257 252 248 246 243 241 247 243 233 226 220 210 211 218 205 215 217 224 216 208 220 241 222 253
339 335 339 344 340 330 322 320 319 314 308 302 296 285 277 275 274 271 266 263 257 253 247 244 242 245 239 234 228 220 213 216 210 210 225 222 215 211 225 234 226 255 278
324 317 318 319 325 327 328 324 320 319 318 313 307 300 289 279 272 266 260 258 256 253 246 242 240 244 241 235 227 225 217 215 216 218 226 205 214 219 223 244 245 264 268
307 302 303 308 312 316 318 314 311 312 313 311 308 304 297 289 274 261 256 251 249 249 246 243 240 239 233 228 224 230 220 222 221 231 233 220 216 218 233 234 255 264 268
300 301 308 312 316 317 316 311 311 309 306 300 296 294 288 279 268 260 250 247 245 244 245 244 247 248 244 236 223 223 227 234 234 236 231 221 217 229 231 242 249 250 261
305 301 302 304 306 305 304 305 305 303 297 292 284 278 272 266 267 266 259 243 241 241 243 244 247 255 250 240 231 220 225 239 235 234 223 219 222 229 242 246 249 249 260
323 318 314 308 306 305 306 304 302 299 293 286 280 274 264 259 253 258 259 253 252 250 249 249 253 249 249 253 253 245 227 231 234 227 236 212 218 234 239 241 245 248 259
314 308 304 298 297 299 297 299 299 295 292 289 285 279 279 275 268 257 256 250 244 240 243 242 240 239 244 236 249 238 232 226 234 232 232 226 230 236 244 245 249 252 256
Wind_Speed_850mb
54 50 48 52 49 64 67 73 79 81 83 83 88 76 79 74 72 64 60 57 59 56 46 55 54 54 58 48 49 52 45 43 41 44 39 31 31 32 30 29 24 22 21
62 54 52 57 62 58 70 74 79 83 85 83 82 86 87 82 75 68 65 61 62 59 58 52 53 53 54 67 57 60 55 51 50 50 44 32 28 30 27 28 28 26 24
65 57 51 56 67 65 63 72 77 80 84 83 81 83 84 84 81 77 75 70 64 63 62 58 63 61 62 67 72 68 67 52 60 56 44 24 23 40 33 33 33 30 28
42 43 56 43 64 67 57 60 67 75 81 81 82 82 86 87 87 85 80 73 71 71 69 60 71 66 70 71 68 75 70 63 64 63 70 46 30 33 30 43 40 37 34
42 36 38 42 47 54 53 56 68 74 78 80 79 73 71 74 78 79 77 77 74 71 68 68 71 71 74 69 71 74 73 73 78 68 76 72 45 37 33 41 52 48 42
30 35 35 35 41 47 48 49 57 64 69 71 70 68 64 63 71 74 73 74 74 74 73 72 75 76 74 73 70 76 77 74 81 75 80 83 73 59 47 36 49 50 44
28 28 29 33 38 41 40 42 48 57 64 65 66 65 61 60 64 64 66 70 72 75 75 73 71 74 74 71 68 74 79 78 85 80 77 81 70 52 44 38 39 51 50
25 25 27 28 28 30 33 36 40 45 53 59 62 62 62 59 61 59 57 57 58 58 63 69 71 65 73 76 67 71 67 73 82 81 81 85 75 57 46 51 44 43 49
25 20 19 18 23 28 28 28 29 35 42 47 50 53 57 58 57 55 55 55 54 52 48 53 57 63 68 69 67 74 70 74 82 78 81 78 79 72 64 60 59 51 50
21 18 20 21 20 20 19 17 18 19 23 25 28 36 40 45 49 52 56 57 53 51 50 53 57 59 62 63 71 68 69 72 76 74 76 80 76 68 61 59 59 57 58
18 17 18 18 20 17 15 11 8 3 5 11 17 22 27 32 39 44 50 53 51 49 49 52 50 50 55 62 67 63 63 66 69 73 77 77 68 58 46 53 58 61 59
12 17 19 24 21 20 18 11 8 7 8 13 20 26 31 33 35 38 42 43 44 44 46 47 50 52 53 56 59 61 67 69 67 69 74 72 65 57 54 41 58 60 54
7 13 23 23 21 17 10 6 1 10 17 23 29 35 37 38 43 42 43 44 42 44 47 50 52 52 52 55 57 58 58 59 61 62 66 65 60 54 42 49 58 59 51
9 12 19 13 18 16 11 15 13 22 28 34 39 43 44 47 47 46 46 46 45 46 48 51 51 52 52 57 57 58 57 58 58 55 55 50 41 40 41 57 59 52 43
20 8 22 24 25 25 26 30 35 42 41 43 51 54 51 51 53 50 49 48 49 49 49 51 50 52 52 54 56 57 55 53 52 54 49 46 38 42 54 59 58 54 40
17 26 28 24 23 27 25 27 33 40 49 56 57 58 57 56 56 53 51 51 52 51 50 51 47 51 52 53 53 52 52 51 52 56 48 46 48 55 55 56 51 46 49
14 11 12 13 17 22 28 35 41 44 52 55 55 58 59 60 57 56 55 55 53 50 49 50 51 50 50 50 52 53 54 53 58 55 48 55 60 64 62 56 56 48 48
31 31 32 31 31 35 40 47 49 46 46 47 50 51 55 57 57 57 56 56 54 52 49 49 48 50 50 51 52 54 52 55 61 51 59 56 61 58 65 55 51 53 34
34 34 34 38 39 39 39 41 39 40 41 41 42 45 48 52 53 56 56 56 54 53 51 48 47 51 50 53 58 58 59 63 60 64 59 70 68 71 65 54 56 33 28
33 35 34 34 35 32 33 33 33 35 36 35 34 36 40 44 47 49 50 51 53 50 49 49 48 49 48 56 61 62 66 68 67 67 66 62 61 69 53 60 37 33 35
37 36 37 35 33 36 39 39 35 31 32 31 29 28 30 33 35 38 41 45 49 52 53 50 47 47 48 53 63 66 67 66 74 73 70 69 70 63 62 45 33 31 36
41 36 38 38 39 43 44 38 35 36 32 30 26 22 23 26 31 35 38 43 48 50 51 51 49 48 47 47 61 62 64 67 75 77 68 68 62 67 62 52 35 39 45
36 38 46 48 47 49 48 49 43 40 40 37 31 26 25 24 25 31 34 40 44 46 48 49 49 48 42 47 60 63 67 68 71 64 64 66 67 68 64 49 45 50 49
39 41 45 47 46 46 47 48 49 49 47 42 35 29 24 23 25 27 30 35 41 41 41 43 43 41 45 43 51 66 64 60 54 58 53 60 60 71 61 58 61 59 60
36 37 36 35 34 35 37 40 42 42 42 41 38 34 29 26 25 28 28 28 33 35 34 31 32 36 41 29 30 42 59 75 61 53 52 64 67 71 76 77 74 67 68
42 43 45 48 46 43 40 37 36 36 35 35 34 32 28 25 28 25 29 31 28 32 34 34 34 31 28 29 24 26 41 72 65 60 60 66 71 73 67 77 80 75 76
Wind_Direction_850mb
257 253 250 240 238 225 224 225 226 225 225 226 223 217 222 221 226 222 224 235 233 235 233 237 243 239 233 219 227 219 216 210 208 196 179 177 191 201 205 214 213 210 205
259 255 252 242 233 231 224 225 228 230 232 233 232 226 227 230 230 230 230 236 237 236 237 236 245 231 245 220 244 221 207 212 211 203 189 186 198 205 207 210 211 212 208
264 257 246 243 232 228 228 228 230 232 234 234 235 235 232 232 233 229 228 237 238 239 239 241 236 244 233 239 236 236 222 236 220 214 207 188 205 200 205 211 214 212 210
257 257 241 245 228 223 227 232 232 231 234 237 238 240 239 236 235 235 235 236 241 239 235 243 236 234 246 247 236 240 228 239 229 215 215 218 210 183 194 211 213 212 211
258 248 234 237 219 216 224 229 230 234 237 242 243 243 241 241 241 240 240 242 242 240 241 239 234 234 240 243 246 230 234 236 231 231 216 218 212 211 205 205 208 209 207
211 198 199 205 211 218 224 229 233 237 240 244 247 248 248 244 240 240 238 237 238 240 238 238 241 241 238 240 244 237 233 247 233 231 229 226 224 219 208 212 209 212 210
185 197 209 214 219 225 231 235 232 232 237 242 248 252 249 248 248 246 245 244 241 240 239 238 239 243 241 238 242 241 245 239 240 237 236 230 228 223 227 221 202 201 207
208 211 210 213 218 228 232 234 234 232 234 238 246 253 255 254 252 249 246 246 247 250 247 240 239 245 243 239 241 247 245 242 241 239 238 234 230 221 226 236 227 204 206
212 211 208 221 240 238 235 232 232 232 238 243 246 250 253 256 255 252 249 247 246 245 239 239 243 243 241 240 242 243 241 248 242 240 241 233 233 222 225 241 245 235 214
210 222 236 246 228 208 205 210 223 230 242 247 253 255 256 254 252 249 247 246 247 242 236 240 240 239 239 240 241 245 246 243 246 241 237 234 232 226 230 239 242 243 238
221 247 253 219 187 167 146 145 159 176 291 288 273 272 264 255 251 250 250 247 244 238 241 239 242 239 240 241 240 244 246 246 243 239 235 232 229 233 231 238 239 235 225
245 245 213 181 170 161 149 115 75 29 325 300 297 295 288 280 267 259 255 255 250 245 242 239 241 244 243 245 246 246 247 244 240 236 232 229 227 228 234 231 236 224 214
286 219 185 181 183 179 166 135 332 303 282 274 272 271 273 278 278 266 258 255 250 245 243 245 245 245 249 250 251 249 245 244 242 239 237 233 230 227 216 226 223 217 213
309 237 204 224 225 225 254 260 276 295 285 276 273 270 271 270 270 264 258 252 248 245 245 241 245 247 250 248 248 246 244 242 239 232 229 230 217 215 218 219 208 200 190
299 265 251 280 271 279 294 298 296 286 284 285 282 275 270 271 270 264 258 251 247 244 240 240 242 247 249 248 246 243 238 234 230 225 216 209 214 211 214 200 191 189 202
305 293 292 293 288 289 296 290 291 295 289 286 284 280 274 272 270 267 261 254 250 246 243 242 243 244 247 247 239 232 233 229 222 208 208 208 206 205 197 189 196 215 227
8 347 341 329 313 301 296 298 301 294 287 287 288 283 276 271 268 265 260 253 251 248 247 247 244 246 245 242 237 226 227 224 210 207 222 202 206 198 196 200 213 223 241
350 340 330 322 316 313 309 306 303 299 292 291 289 285 280 273 267 262 259 254 248 246 245 246 246 247 245 240 230 228 219 213 208 219 205 214 204 213 204 207 223 238 222
357 353 344 331 318 310 306 303 303 302 299 299 294 287 282 278 271 266 262 257 252 248 246 243 241 247 243 233 226 220 210 211 218 205 215 217 224 216 208 220 241 222 253
339 335 339 344 340 330 322 320 319 314 308 302 296 285 277 275 274 271 266 263 257 253 247 244 242 245 239 234 228 220 213 216 210 210 225 222 215 211 225 234 226 255 278
324 317 318 319 325 327 328 324 320 319 318 313 307 300 289 279 272 266 260 258 256 253 246 242 240 244 241 235 227 225 217 215 216 218 226 205 214 219 223 244 245 264 268
307 302 303 308 312 316 318 314 311 312 313 311 308 304 297 289 274 261 256 251 249 249 246 243 240 239 233 228 224 230 220 222 221 231 233 220 216 218 233 234 255 264 268
300 301 308 312 316 317 316 311 311 309 306 300 296 294 288 279 268 260 250 247 245 244 245 244 247 248 244 236 223 223 227 234 234 236 231 221 217 229 231 242 249 250 261
305 301 302 304 306 305 304 305 305 303 297 292 284 278 272 266 267 266 259 243 241 241 243 244 247 255 250 240 231 220 225 239 235 234 223 219 222 229 242 246 249 249 260
323 318 314 308 306 305 306 304 302 299 293 286 280 274 264 259 253 258 259 253 252 250 249 249 253 249 249 253 253 245 227 231 234 227 236 212 218 234 239 241 245 248 259
314 308 304 298 297 299 297 299 299 295 292 289 285 279 279 275 268 257 256 250 244 240 243 242 240 239 244 236 249 238 232 226 234 232 232 226 230 236 244 245 249 252 256